HP3ICC-18 Weather Reports


time (UTC)temp
F
wind
direction
speed
knots
gust
knots
rain 1hr
in
rain 24hr
in
rain mn
in
humidity
%
barometer
mb
20260503052217 77 156 0.9 0.9 0.00 0.00 0.00 86 1012.0
20260503052116 77 156 0.9 0.9 0.00 0.00 0.00 86 1012.0
20260503050216 77 156 0.9 0.9 0.00 0.00 0.00 86 1012.0
20260503050116 77 156 0.9 0.9 0.00 0.00 0.00 86 1012.0
20260503044216 77 156 0.9 0.9 0.00 0.00 0.00 86 1012.0
20260503044115 77 156 0.9 0.9 0.00 0.00 0.00 86 1012.0
20260503042215 77 156 0.9 0.9 0.00 0.00 0.00 86 1012.0
20260503042115 77 156 0.9 0.9 0.00 0.00 0.00 86 1012.0
20260503040215 77 156 0.9 0.9 0.00 0.00 0.00 86 1012.0
20260503040114 77 156 0.9 0.9 0.00 0.00 0.00 86 1012.0
20260503034214 80 157 0.9 0.9 0.00 0.00 0.00 76 1012.0
20260503034114 80 157 0.9 0.9 0.00 0.00 0.00 76 1012.0
20260503032214 80 157 0.9 0.9 0.00 0.00 0.00 76 1012.0
20260503032113 80 157 0.9 0.9 0.00 0.00 0.00 76 1012.0
20260503030213 80 157 0.9 0.9 0.00 0.00 0.00 76 1012.0
20260503030113 80 157 0.9 0.9 0.00 0.00 0.00 76 1012.0
20260503024212 80 157 0.9 0.9 0.00 0.00 0.00 76 1012.0
20260503024112 80 157 0.9 0.9 0.00 0.00 0.00 76 1012.0
20260503022212 80 157 0.9 0.9 0.00 0.00 0.00 76 1012.0
20260503022112 80 157 0.9 0.9 0.00 0.00 0.00 76 1012.0
20260503020211 80 157 0.9 0.9 0.00 0.00 0.00 76 1012.0
20260503020111 80 157 0.9 0.9 0.00 0.00 0.00 76 1012.0
20260503014211 80 157 0.9 0.9 0.00 0.00 0.00 76 1012.0
20260503014111 80 157 0.9 0.9 0.00 0.00 0.00 76 1012.0
20260503012210 80 157 0.9 0.9 0.00 0.00 0.00 76 1011.0
20260503012110 80 157 0.9 0.9 0.00 0.00 0.00 76 1011.0
20260503010209 80 157 0.9 0.9 0.00 0.00 0.00 76 1011.0
20260503010109 80 157 0.9 0.9 0.00 0.00 0.00 76 1011.0
20260503004209 80 157 0.9 0.9 0.00 0.00 0.00 76 1011.0
20260503004109 80 157 0.9 0.9 0.00 0.00 0.00 76 1011.0
20260503002208 80 157 0.9 0.9 0.00 0.00 0.00 76 1010.0
20260503002108 80 157 0.9 0.9 0.00 0.00 0.00 76 1010.0
20260503000211 80 157 0.9 0.9 0.00 0.00 0.00 76 1010.0
20260503000108 80 157 0.9 0.9 0.00 0.00 0.00 76 1010.0
20260502234208 80 157 0.9 0.9 0.00 0.00 0.00 76 1010.0
20260502234107 80 157 0.9 0.9 0.00 0.00 0.00 76 1010.0
20260502232207 80 157 0.9 0.9 0.00 0.00 0.00 76 1009.0
20260502232107 80 157 0.9 0.9 0.00 0.00 0.00 76 1009.0
20260502230207 80 157 0.9 0.9 0.00 0.00 0.00 76 1009.0
20260502230106 80 157 0.9 0.9 0.00 0.00 0.00 76 1009.0
20260502224206 80 157 0.9 0.9 0.00 0.00 0.00 76 1009.0
20260502224106 80 157 0.9 0.9 0.00 0.00 0.00 76 1009.0
20260502222206 80 157 0.9 0.9 0.02 0.00 0.00 76 1009.0
20260502222105 80 157 0.9 0.9 0.02 0.00 0.00 76 1009.0
20260502220205 80 157 0.9 0.9 0.00 0.00 0.00 76 1009.0
20260502220105 80 157 0.9 0.9 0.00 0.00 0.00 76 1009.0
20260502214204 80 157 0.9 0.9 0.02 0.00 0.00 76 1009.0
20260502214104 80 157 0.9 0.9 0.02 0.00 0.00 76 1009.0
20260502212204 80 157 0.9 0.9 0.00 0.00 0.00 76 1009.0
20260502212104 80 157 0.9 0.9 0.00 0.00 0.00 76 1009.0
20260502210204 80 157 0.9 0.9 0.02 0.00 0.00 76 1009.0
20260502204202 80 157 0.9 0.9 0.00 0.00 0.00 76 1009.0
20260502204102 80 157 0.9 0.9 0.00 0.00 0.00 76 1009.0
20260502202202 80 157 0.9 0.9 0.03 0.00 0.00 76 1009.0
20260502202102 80 157 0.9 0.9 0.03 0.00 0.00 76 1009.0
20260502200201 80 157 0.9 0.9 0.00 0.00 0.00 76 1009.0
20260502200101 80 157 0.9 0.9 0.00 0.00 0.00 76 1009.0
20260502194201 80 157 0.9 0.9 0.03 0.00 0.00 76 1009.0
20260502194100 80 157 0.9 0.9 0.03 0.00 0.00 76 1009.0
20260502192200 80 157 0.9 0.9 0.00 0.00 0.00 76 1009.0
20260502192100 80 157 0.9 0.9 0.00 0.00 0.00 76 1009.0
20260502190200 80 157 0.9 0.9 0.02 0.00 0.00 76 1009.0
20260502190059 80 157 0.9 0.9 0.02 0.00 0.00 76 1009.0
20260502184159 80 157 0.9 0.9 0.00 0.00 0.00 76 1009.0
20260502184059 80 157 0.9 0.9 0.00 0.00 0.00 76 1009.0
20260502182159 80 157 0.9 0.9 0.03 0.00 0.00 76 1009.0
20260502182058 80 157 0.9 0.9 0.03 0.00 0.00 76 1009.0
20260502180158 80 157 0.9 0.9 0.00 0.00 0.00 76 1009.0
20260502170156 81 304 0.0 0.9 0.00 0.00 0.00 73 1010.0
20260502164156 81 304 0.0 0.9 0.00 0.00 0.00 73 1010.0
20260502164056 81 304 0.0 0.9 0.00 0.00 0.00 73 1010.0
20260502162156 81 2 1.7 3.5 0.01 0.00 0.00 72 1010.0
20260502162055 81 2 1.7 3.5 0.01 0.00 0.00 72 1010.0
20260502160155 80 2 1.7 3.5 0.04 0.00 0.00 72 1010.0
20260502152154 80 359 1.7 3.5 0.03 0.00 0.00 78 1010.0
20260502152054 80 359 1.7 3.5 0.03 0.00 0.00 78 1010.0
20260502150154 80 359 1.7 3.5 0.04 0.00 0.00 78 1010.0
20260502130151 80 222 0.9 0.9 0.00 0.00 0.00 83 1010.0
20260502122150 80 222 0.9 0.9 0.00 0.00 0.00 83 1009.0
20260502122050 80 222 0.9 0.9 0.00 0.00 0.00 83 1009.0
20260502120150 80 222 0.9 0.9 0.00 0.00 0.00 83 1009.0
20260502114149 80 222 0.9 0.9 0.00 0.00 0.00 83 1009.0
20260502114051 80 222 0.9 0.9 0.00 0.00 0.00 83 1009.0
20260502112148 80 222 0.9 0.9 0.00 0.00 0.00 83 1009.0
20260502112048 80 222 0.9 0.9 0.00 0.00 0.00 83 1009.0
20260502110148 80 222 0.9 0.9 0.00 0.00 0.00 83 1009.0
20260502110048 80 222 0.9 0.9 0.00 0.00 0.00 83 1009.0
20260502104147 80 222 0.9 0.9 0.00 0.00 0.00 83 1009.0
20260502104047 80 222 0.9 0.9 0.00 0.00 0.00 83 1009.0
20260502102147 80 222 0.9 0.9 0.00 0.00 0.00 83 1008.0
20260502102047 80 222 0.9 0.9 0.00 0.00 0.00 83 1008.0
20260502100147 80 222 0.9 0.9 0.00 0.00 0.00 83 1008.0
20260502090145 80 222 0.9 0.9 0.00 0.00 0.00 83 1008.0
20260502070142 80 222 0.9 0.9 0.02 0.00 0.00 83 1008.0
20260502070042 80 222 0.9 0.9 0.02 0.00 0.00 83 1008.0
20260502064142 80 222 0.9 0.9 0.00 0.00 0.00 83 1008.0
20260502064042 80 222 0.9 0.9 0.00 0.00 0.00 83 1008.0
20260502062141 80 222 0.9 0.9 0.01 0.00 0.00 83 1009.0
20260502062041 80 222 0.9 0.9 0.01 0.00 0.00 83 1009.0
20260502060141 80 222 0.9 0.9 0.00 0.00 0.00 83 1009.0
20260502060040 80 222 0.9 0.9 0.00 0.00 0.00 83 1009.0
20260502054140 80 222 0.9 0.9 0.01 0.00 0.00 83 1009.0
20260502054040 80 222 0.9 0.9 0.01 0.00 0.00 83 1009.0